QPF
0.00 0.00 0.00 0.00 0.00 0.00 0.01 0.01 0.01 0.01 0.01 0.01 0.01 0.01 0.01 0.02 0.02 0.02 0.02 0.01 0.01 0.01 0.00 0.00 0.00 0.00 0.00 0.01 0.01 0.01 0.01 0.01 0.01 0.01 0.01 0.02 0.02 0.02 0.02 0.02 0.01 0.02 0.02 0.02
0.00 0.00 0.00 0.00 0.00 0.00 0.00 0.00 0.00 0.01 0.01 0.01 0.00 0.01 0.01 0.01 0.01 0.01 0.01 0.01 0.01 0.01 0.01 0.00 0.00 0.00 0.00 0.01 0.01 0.01 0.02 0.02 0.02 0.01 0.02 0.03 0.03 0.02 0.02 0.02 0.02 0.03 0.03 0.04
0.00 0.00 0.00 0.00 0.00 0.00 0.00 0.00 0.00 0.00 0.00 0.00 0.01 0.01 0.01 0.01 0.01 0.01 0.01 0.01 0.01 0.01 0.01 0.01 0.01 0.01 0.01 0.01 0.01 0.01 0.01 0.02 0.02 0.02 0.02 0.04 0.04 0.03 0.03 0.03 0.04 0.04 0.05 0.06
0.00 0.00 0.00 0.00 0.00 0.00 0.00 0.00 0.00 0.00 0.00 0.00 0.00 0.01 0.01 0.01 0.01 0.01 0.00 0.00 0.01 0.01 0.01 0.01 0.01 0.01 0.01 0.01 0.01 0.01 0.01 0.02 0.02 0.03 0.03 0.04 0.05 0.04 0.04 0.04 0.05 0.05 0.06 0.06
0.01 0.01 0.00 0.00 0.00 0.00 0.00 0.00 0.00 0.00 0.00 0.00 0.00 0.00 0.01 0.01 0.01 0.01 0.01 0.00 0.01 0.01 0.01 0.01 0.01 0.01 0.01 0.01 0.01 0.01 0.01 0.02 0.02 0.03 0.03 0.05 0.06 0.07 0.07 0.07 0.07 0.07 0.07 0.07
0.01 0.01 0.00 0.00 0.00 0.00 0.00 0.00 0.00 0.00 0.00 0.00 0.00 0.00 0.00 0.01 0.01 0.01 0.01 0.01 0.00 0.01 0.00 0.01 0.01 0.01 0.01 0.01 0.01 0.01 0.02 0.02 0.02 0.03 0.03 0.04 0.05 0.06 0.07 0.08 0.08 0.06 0.07 0.07
0.01 0.01 0.00 0.00 0.00 0.00 0.00 0.00 0.00 0.00 0.00 0.00 0.00 0.00 0.00 0.00 0.00 0.01 0.01 0.00 0.00 0.00 0.00 0.00 0.00 0.00 0.01 0.01 0.01 0.02 0.02 0.02 0.02 0.02 0.03 0.03 0.04 0.05 0.06 0.07 0.08 0.07 0.05 0.05
0.00 0.01 0.00 0.00 0.00 0.00 0.00 0.00 0.00 0.00 0.00 0.00 0.00 0.00 0.00 0.00 0.00 0.00 0.00 0.00 0.00 0.00 0.00 0.00 0.00 0.00 0.00 0.00 0.00 0.00 0.01 0.01 0.01 0.01 0.02 0.02 0.03 0.03 0.04 0.04 0.06 0.06 0.06 0.05
0.00 0.00 0.00 0.00 0.00 0.00 0.00 0.00 0.00 0.00 0.00 0.00 0.00 0.00 0.00 0.00 0.00 0.00 0.00 0.00 0.00 0.00 0.00 0.00 0.00 0.00 0.00 0.00 0.00 0.00 0.00 0.00 0.00 0.01 0.01 0.01 0.01 0.02 0.02 0.03 0.03 0.04 0.04 0.05
0.00 0.00 0.00 0.00 0.00 0.00 0.00 0.00 0.00 0.00 0.00 0.00 0.00 0.00 0.00 0.00 0.00 0.00 0.00 0.00 0.00 0.00 0.00 0.00 0.00 0.00 0.00 0.00 0.00 0.00 0.00 0.00 0.00 0.01 0.01 0.01 0.01 0.01 0.02 0.02 0.03 0.03 0.03 0.03
0.01 0.00 0.00 0.00 0.00 0.00 0.00 0.00 0.00 0.00 0.00 0.00 0.00 0.00 0.00 0.00 0.00 0.00 0.00 0.00 0.00 0.00 0.00 0.00 0.00 0.00 0.00 0.00 0.00 0.00 0.00 0.00 0.00 0.00 0.01 0.01 0.01 0.01 0.01 0.02 0.02 0.03 0.03 0.03
0.01 0.00 0.00 0.00 0.00 0.00 0.00 0.00 0.00 0.00 0.00 0.00 0.00 0.00 0.00 0.00 0.00 0.00 0.00 0.00 0.00 0.00 0.00 0.00 0.00 0.00 0.00 0.00 0.00 0.00 0.00 0.00 0.00 0.00 0.00 0.01 0.01 0.01 0.01 0.01 0.01 0.02 0.02 0.03
0.00 0.00 0.00 0.00 0.00 0.00 0.00 0.00 0.00 0.00 0.00 0.00 0.00 0.00 0.00 0.00 0.00 0.00 0.00 0.00 0.00 0.00 0.00 0.00 0.00 0.00 0.00 0.00 0.00 0.00 0.00 0.00 0.00 0.00 0.00 0.00 0.01 0.01 0.01 0.01 0.01 0.01 0.01 0.01
0.00 0.00 0.00 0.00 0.00 0.00 0.00 0.00 0.00 0.00 0.00 0.00 0.00 0.00 0.00 0.00 0.00 0.00 0.00 0.00 0.00 0.00 0.00 0.00 0.00 0.00 0.00 0.00 0.00 0.00 0.00 0.00 0.00 0.00 0.00 0.00 0.00 0.01 0.01 0.01 0.01 0.01 0.01 0.01
0.00 0.00 0.00 0.00 0.00 0.00 0.00 0.00 0.00 0.00 0.00 0.00 0.00 0.00 0.00 0.00 0.00 0.00 0.00 0.00 0.00 0.00 0.00 0.00 0.00 0.00 0.00 0.00 0.00 0.00 0.00 0.00 0.00 0.00 0.00 0.00 0.00 0.00 0.01 0.01 0.01 0.01 0.01 0.01
0.00 0.00 0.00 0.00 0.00 0.00 0.00 0.00 0.00 0.00 0.00 0.00 0.00 0.00 0.00 0.00 0.00 0.00 0.00 0.00 0.00 0.00 0.00 0.00 0.00 0.00 0.00 0.00 0.00 0.00 0.00 0.00 0.00 0.00 0.00 0.00 0.00 0.00 0.00 0.01 0.01 0.01 0.01 0.01
0.00 0.00 0.00 0.00 0.00 0.00 0.00 0.00 0.00 0.00 0.00 0.00 0.00 0.00 0.00 0.00 0.00 0.00 0.00 0.00 0.00 0.00 0.00 0.00 0.00 0.00 0.00 0.00 0.00 0.00 0.00 0.00 0.00 0.00 0.00 0.00 0.00 0.00 0.00 0.00 0.01 0.01 0.01 0.01
0.00 0.00 0.00 0.00 0.00 0.00 0.00 0.00 0.00 0.00 0.00 0.00 0.00 0.00 0.00 0.00 0.00 0.00 0.00 0.00 0.00 0.00 0.00 0.00 0.00 0.00 0.00 0.00 0.00 0.00 0.00 0.00 0.00 0.00 0.00 0.00 0.00 0.00 0.00 0.00 0.01 0.01 0.01 0.01
0.00 0.00 0.00 0.00 0.00 0.00 0.00 0.00 0.00 0.00 0.00 0.00 0.00 0.00 0.00 0.00 0.00 0.00 0.00 0.00 0.00 0.00 0.00 0.00 0.00 0.00 0.00 0.00 0.00 0.00 0.00 0.00 0.00 0.00 0.00 0.00 0.00 0.00 0.00 0.01 0.01 0.01 0.01 0.01
0.00 0.00 0.00 0.00 0.00 0.00 0.00 0.00 0.00 0.00 0.00 0.00 0.00 0.00 0.00 0.00 0.00 0.00 0.00 0.00 0.00 0.00 0.00 0.00 0.00 0.00 0.00 0.00 0.00 0.00 0.00 0.00 0.00 0.00 0.00 0.00 0.00 0.00 0.00 0.00 0.00 0.00 0.01 0.01
0.00 0.00 0.00 0.00 0.00 0.00 0.00 0.00 0.00 0.00 0.00 0.00 0.00 0.00 0.00 0.00 0.00 0.00 0.00 0.00 0.00 0.00 0.00 0.00 0.00 0.00 0.00 0.00 0.00 0.00 0.00 0.00 0.00 0.00 0.00 0.00 0.00 0.00 0.00 0.00 0.00 0.00 0.01 0.01
0.00 0.00 0.00 0.00 0.00 0.00 0.00 0.00 0.00 0.00 0.00 0.00 0.00 0.00 0.00 0.00 0.00 0.00 0.00 0.00 0.00 0.00 0.00 0.00 0.00 0.00 0.00 0.00 0.00 0.00 0.00 0.00 0.00 0.00 0.00 0.00 0.00 0.00 0.00 0.00 0.00 0.00 0.01 0.01
0.00 0.00 0.00 0.00 0.00 0.00 0.00 0.00 0.00 0.00 0.00 0.00 0.00 0.00 0.00 0.00 0.00 0.00 0.00 0.00 0.00 0.00 0.00 0.00 0.00 0.00 0.00 0.00 0.00 0.00 0.00 0.00 0.00 0.00 0.00 0.00 0.01 0.01 0.01 0.01 0.01 0.01 0.01 0.01
0.00 0.00 0.00 0.00 0.00 0.00 0.00 0.00 0.00 0.00 0.00 0.00 0.00 0.00 0.00 0.00 0.00 0.00 0.00 0.00 0.00 0.00 0.00 0.00 0.00 0.00 0.00 0.00 0.00 0.00 0.00 0.00 0.00 0.00 0.01 0.01 0.01 0.01 0.01 0.01 0.01 0.01 0.01 0.02
0.00 0.00 0.00 0.00 0.00 0.00 0.00 0.00 0.00 0.00 0.00 0.00 0.00 0.00 0.00 0.00 0.00 0.00 0.00 0.00 0.00 0.00 0.00 0.00 0.00 0.00 0.00 0.00 0.00 0.00 0.00 0.00 0.01 0.01 0.01 0.01 0.01 0.01 0.01 0.01 0.01 0.02 0.02 0.02
0.00 0.00 0.00 0.01 0.01 0.00 0.00 0.00 0.00 0.00 0.00 0.00 0.00 0.00 0.00 0.00 0.00 0.00 0.00 0.00 0.00 0.00 0.00 0.00 0.00 0.00 0.00 0.00 0.00 0.00 0.00 0.00 0.01 0.01 0.01 0.01 0.01 0.01 0.01 0.02 0.02 0.02 0.02 0.02
0.00 0.00 0.00 0.00 0.00 0.00 0.00 0.00 0.00 0.00 0.00 0.00 0.00 0.00 0.00 0.00 0.00 0.00 0.00 0.00 0.00 0.00 0.00 0.00 0.00 0.00 0.00 0.00 0.00 0.00 0.00 0.00 0.01 0.01 0.01 0.01 0.01 0.01 0.02 0.02 0.02 0.02 0.02 0.02
MSLP
1025.61 1025.54 1025.42 1025.26 1025.03 1024.72 1024.31 1023.78 1023.13 1022.37 1021.52 1020.63 1019.77 1018.98 1018.34 1017.86 1017.58 1017.49 1017.56 1017.77 1018.08 1018.43 1018.81 1019.19 1019.55 1019.89 1020.21 1020.49 1020.74 1020.94 1021.07 1021.14 1021.12 1021.01 1020.82 1020.56 1020.25 1019.90 1019.54 1019.16 1018.78 1018.38 1017.98 1017.54
1025.74 1025.47 1025.10 1024.66 1024.16 1023.62 1023.03 1022.40 1021.74 1021.05 1020.34 1019.65 1018.99 1018.41 1017.93 1017.57 1017.34 1017.23 1017.25 1017.38 1017.59 1017.86 1018.18 1018.52 1018.88 1019.25 1019.60 1019.94 1020.25 1020.50 1020.69 1020.80 1020.81 1020.74 1020.57 1020.34 1020.05 1019.73 1019.38 1019.02 1018.65 1018.27 1017.86 1017.43
1025.79 1025.27 1024.63 1023.91 1023.14 1022.36 1021.61 1020.89 1020.22 1019.60 1019.04 1018.53 1018.09 1017.70 1017.39 1017.15 1016.98 1016.90 1016.89 1016.96 1017.10 1017.30 1017.56 1017.88 1018.24 1018.62 1019.02 1019.41 1019.76 1020.06 1020.30 1020.44 1020.49 1020.45 1020.32 1020.11 1019.85 1019.55 1019.23 1018.88 1018.52 1018.15 1017.74 1017.31
1025.74 1024.96 1024.05 1023.05 1022.02 1021.04 1020.14 1019.34 1018.67 1018.12 1017.69 1017.35 1017.09 1016.89 1016.74 1016.61 1016.53 1016.47 1016.46 1016.50 1016.60 1016.76 1016.99 1017.29 1017.65 1018.05 1018.47 1018.90 1019.29 1019.63 1019.90 1020.08 1020.16 1020.15 1020.05 1019.88 1019.65 1019.38 1019.07 1018.74 1018.39 1018.01 1017.60 1017.15
1025.55 1024.53 1023.36 1022.12 1020.89 1019.74 1018.72 1017.87 1017.20 1016.72 1016.39 1016.20 1016.09 1016.04 1016.02 1016.01 1015.99 1015.98 1015.99 1016.02 1016.10 1016.25 1016.47 1016.76 1017.12 1017.54 1017.98 1018.43 1018.85 1019.22 1019.51 1019.72 1019.83 1019.85 1019.78 1019.64 1019.44 1019.19 1018.90 1018.58 1018.23 1017.84 1017.41 1016.94
1025.18 1023.95 1022.58 1021.16 1019.78 1018.52 1017.44 1016.57 1015.92 1015.50 1015.26 1015.17 1015.18 1015.25 1015.32 1015.39 1015.44 1015.47 1015.50 1015.54 1015.63 1015.78 1016.00 1016.29 1016.66 1017.08 1017.54 1018.00 1018.43 1018.81 1019.13 1019.35 1019.49 1019.54 1019.50 1019.39 1019.21 1018.98 1018.70 1018.38 1018.02 1017.61 1017.16 1016.67
1024.55 1023.17 1021.68 1020.17 1018.73 1017.44 1016.35 1015.50 1014.90 1014.54 1014.37 1014.36 1014.44 1014.58 1014.71 1014.83 1014.92 1014.98 1015.04 1015.10 1015.20 1015.36 1015.58 1015.89 1016.26 1016.68 1017.14 1017.60 1018.03 1018.42 1018.74 1018.98 1019.13 1019.20 1019.19 1019.10 1018.94 1018.73 1018.45 1018.13 1017.75 1017.32 1016.84 1016.32
1023.59 1022.14 1020.63 1019.12 1017.72 1016.48 1015.46 1014.68 1014.15 1013.85 1013.75 1013.78 1013.91 1014.07 1014.24 1014.38 1014.48 1014.56 1014.63 1014.71 1014.82 1014.99 1015.23 1015.54 1015.91 1016.33 1016.77 1017.22 1017.64 1018.02 1018.33 1018.58 1018.75 1018.83 1018.84 1018.78 1018.63 1018.43 1018.16 1017.82 1017.42 1016.97 1016.46 1015.91
1022.25 1020.84 1019.39 1017.99 1016.71 1015.61 1014.72 1014.07 1013.64 1013.42 1013.36 1013.43 1013.57 1013.74 1013.90 1014.03 1014.14 1014.22 1014.29 1014.38 1014.51 1014.69 1014.93 1015.23 1015.59 1015.99 1016.42 1016.84 1017.24 1017.61 1017.92 1018.16 1018.34 1018.44 1018.47 1018.42 1018.29 1018.09 1017.82 1017.47 1017.06 1016.59 1016.06 1015.49
1020.57 1019.26 1017.97 1016.76 1015.69 1014.79 1014.09 1013.59 1013.29 1013.15 1013.15 1013.23 1013.37 1013.52 1013.66 1013.77 1013.86 1013.94 1014.01 1014.10 1014.23 1014.41 1014.65 1014.94 1015.28 1015.66 1016.06 1016.45 1016.83 1017.18 1017.48 1017.73 1017.91 1018.03 1018.08 1018.04 1017.93 1017.74 1017.46 1017.11 1016.69 1016.20 1015.66 1015.08
1018.62 1017.47 1016.40 1015.44 1014.62 1013.97 1013.48 1013.17 1013.00 1012.95 1012.99 1013.09 1013.22 1013.34 1013.45 1013.54 1013.62 1013.68 1013.75 1013.84 1013.97 1014.15 1014.37 1014.65 1014.96 1015.31 1015.67 1016.04 1016.40 1016.73 1017.02 1017.28 1017.48 1017.62 1017.68 1017.67 1017.57 1017.39 1017.12 1016.76 1016.33 1015.84 1015.30 1014.72
1016.56 1015.61 1014.78 1014.09 1013.54 1013.14 1012.87 1012.73 1012.69 1012.72 1012.81 1012.91 1013.02 1013.13 1013.21 1013.28 1013.34 1013.39 1013.46 1013.56 1013.69 1013.86 1014.07 1014.32 1014.61 1014.92 1015.26 1015.60 1015.94 1016.26 1016.56 1016.83 1017.05 1017.21 1017.31 1017.32 1017.24 1017.07 1016.80 1016.46 1016.03 1015.54 1015.01 1014.45
1014.59 1013.85 1013.26 1012.82 1012.51 1012.33 1012.26 1012.26 1012.32 1012.42 1012.52 1012.63 1012.73 1012.81 1012.88 1012.94 1012.99 1013.05 1013.13 1013.23 1013.36 1013.53 1013.73 1013.96 1014.22 1014.50 1014.81 1015.13 1015.46 1015.78 1016.10 1016.39 1016.64 1016.83 1016.96 1017.00 1016.94 1016.79 1016.54 1016.20 1015.79 1015.31 1014.80 1014.27
1012.90 1012.34 1011.96 1011.73 1011.63 1011.62 1011.68 1011.78 1011.90 1012.03 1012.14 1012.24 1012.32 1012.39 1012.45 1012.51 1012.57 1012.65 1012.74 1012.86 1013.00 1013.16 1013.34 1013.56 1013.79 1014.05 1014.34 1014.65 1014.97 1015.31 1015.65 1015.96 1016.25 1016.48 1016.64 1016.71 1016.68 1016.54 1016.31 1015.99 1015.60 1015.15 1014.66 1014.17
1011.63 1011.24 1011.02 1010.94 1010.97 1011.07 1011.21 1011.35 1011.48 1011.60 1011.69 1011.77 1011.83 1011.89 1011.95 1012.02 1012.11 1012.21 1012.33 1012.46 1012.61 1012.77 1012.95 1013.14 1013.36 1013.60 1013.87 1014.17 1014.50 1014.85 1015.21 1015.56 1015.88 1016.15 1016.34 1016.44 1016.43 1016.32 1016.11 1015.81 1015.44 1015.02 1014.57 1014.11
1010.87 1010.60 1010.49 1010.51 1010.61 1010.74 1010.88 1011.01 1011.12 1011.19 1011.24 1011.28 1011.32 1011.37 1011.43 1011.52 1011.64 1011.77 1011.92 1012.08 1012.24 1012.40 1012.57 1012.75 1012.94 1013.17 1013.42 1013.72 1014.05 1014.42 1014.80 1015.18 1015.53 1015.83 1016.05 1016.17 1016.19 1016.10 1015.91 1015.63 1015.29 1014.90 1014.49 1014.07
1010.58 1010.40 1010.37 1010.42 1010.53 1010.64 1010.74 1010.81 1010.84 1010.85 1010.84 1010.83 1010.84 1010.88 1010.96 1011.07 1011.21 1011.37 1011.55 1011.73 1011.90 1012.06 1012.22 1012.39 1012.57 1012.77 1013.01 1013.30 1013.64 1014.01 1014.41 1014.81 1015.18 1015.50 1015.75 1015.89 1015.93 1015.86 1015.68 1015.42 1015.11 1014.75 1014.38 1014.00
1010.67 1010.56 1010.56 1010.61 1010.68 1010.73 1010.75 1010.73 1010.67 1010.59 1010.52 1010.46 1010.44 1010.46 1010.54 1010.67 1010.84 1011.03 1011.22 1011.42 1011.60 1011.76 1011.91 1012.06 1012.23 1012.42 1012.65 1012.93 1013.26 1013.64 1014.04 1014.45 1014.84 1015.17 1015.42 1015.58 1015.62 1015.57 1015.41 1015.18 1014.88 1014.56 1014.22 1013.88
1010.98 1010.92 1010.92 1010.94 1010.94 1010.91 1010.83 1010.71 1010.55 1010.39 1010.25 1010.14 1010.09 1010.10 1010.18 1010.32 1010.50 1010.71 1010.92 1011.12 1011.31 1011.47 1011.61 1011.75 1011.90 1012.07 1012.29 1012.57 1012.90 1013.27 1013.67 1014.08 1014.47 1014.80 1015.06 1015.22 1015.27 1015.22 1015.08 1014.87 1014.61 1014.31 1014.01 1013.70
1011.33 1011.28 1011.26 1011.23 1011.16 1011.04 1010.86 1010.65 1010.41 1010.17 1009.97 1009.81 1009.74 1009.74 1009.81 1009.96 1010.14 1010.35 1010.57 1010.78 1010.95 1011.11 1011.25 1011.38 1011.52 1011.70 1011.91 1012.18 1012.51 1012.88 1013.28 1013.68 1014.06 1014.39 1014.65 1014.81 1014.87 1014.84 1014.71 1014.52 1014.29 1014.02 1013.74 1013.47
1011.54 1011.49 1011.44 1011.35 1011.21 1011.00 1010.74 1010.45 1010.14 1009.84 1009.59 1009.41 1009.30 1009.29 1009.36 1009.49 1009.67 1009.88 1010.09 1010.29 1010.46 1010.62 1010.75 1010.89 1011.04 1011.22 1011.44 1011.72 1012.05 1012.42 1012.82 1013.22 1013.60 1013.93 1014.18 1014.35 1014.42 1014.41 1014.31 1014.14 1013.94 1013.70 1013.45 1013.20
1011.50 1011.43 1011.34 1011.19 1010.98 1010.70 1010.38 1010.03 1009.67 1009.34 1009.05 1008.84 1008.72 1008.69 1008.74 1008.85 1009.01 1009.20 1009.40 1009.58 1009.76 1009.91 1010.06 1010.21 1010.38 1010.58 1010.83 1011.13 1011.47 1011.86 1012.27 1012.68 1013.07 1013.40 1013.67 1013.85 1013.94 1013.95 1013.88 1013.75 1013.58 1013.37 1013.15 1012.92
1011.17 1011.06 1010.91 1010.71 1010.44 1010.12 1009.75 1009.36 1008.97 1008.62 1008.32 1008.09 1007.95 1007.89 1007.91 1007.99 1008.12 1008.29 1008.46 1008.63 1008.80 1008.97 1009.13 1009.31 1009.51 1009.75 1010.04 1010.38 1010.77 1011.18 1011.62 1012.05 1012.46 1012.81 1013.10 1013.30 1013.43 1013.47 1013.44 1013.35 1013.22 1013.05 1012.85 1012.64
1010.53 1010.37 1010.17 1009.92 1009.61 1009.26 1008.86 1008.46 1008.07 1007.70 1007.39 1007.15 1006.99 1006.90 1006.88 1006.93 1007.02 1007.14 1007.29 1007.44 1007.61 1007.79 1007.98 1008.20 1008.45 1008.74 1009.09 1009.48 1009.92 1010.38 1010.86 1011.32 1011.76 1012.15 1012.47 1012.71 1012.88 1012.97 1012.99 1012.94 1012.85 1012.72 1012.56 1012.36
1009.64 1009.43 1009.18 1008.89 1008.56 1008.19 1007.79 1007.39 1007.00 1006.64 1006.33 1006.07 1005.88 1005.76 1005.70 1005.70 1005.74 1005.83 1005.94 1006.08 1006.25 1006.44 1006.66 1006.93 1007.24 1007.60 1008.01 1008.47 1008.96 1009.48 1010.01 1010.52 1011.00 1011.43 1011.80 1012.09 1012.30 1012.44 1012.51 1012.53 1012.48 1012.39 1012.26 1012.08
1008.55 1008.30 1008.02 1007.70 1007.36 1006.99 1006.61 1006.22 1005.84 1005.49 1005.18 1004.91 1004.70 1004.54 1004.44 1004.39 1004.38 1004.43 1004.51 1004.64 1004.81 1005.02 1005.28 1005.60 1005.97 1006.39 1006.87 1007.39 1007.95 1008.53 1009.11 1009.67 1010.20 1010.68 1011.09 1011.43 1011.70 1011.89 1012.02 1012.08 1012.09 1012.04 1011.94 1011.78
1007.33 1007.05 1006.74 1006.42 1006.08 1005.72 1005.36 1005.00 1004.64 1004.31 1004.00 1003.72 1003.49 1003.30 1003.16 1003.07 1003.03 1003.04 1003.10 1003.22 1003.40 1003.64 1003.94 1004.30 1004.73 1005.22 1005.76 1006.34 1006.96 1007.59 1008.22 1008.82 1009.39 1009.91 1010.37 1010.76 1011.07 1011.32 1011.49 1011.60 1011.65 1011.64 1011.56 1011.43
Thickness
5494 5498 5498 5502 5505 5500 5498 5500 5498 5510 5507 5526 5523 5519 5517 5515 5512 5510 5509 5508 5505 5503 5500 5498 5496 5495 5493 5492 5492 5491 5490 5490 5491 5491 5492 5492 5493 5493 5493 5492 5492 5493 5493 5493
5496 5502 5498 5502 5507 5505 5504 5505 5505 5508 5515 5529 5522 5516 5513 5511 5509 5508 5508 5507 5505 5502 5499 5497 5494 5492 5491 5490 5489 5488 5487 5487 5487 5487 5487 5487 5487 5487 5487 5487 5487 5487 5486 5486
5490 5494 5502 5509 5519 5513 5508 5508 5507 5509 5522 5523 5518 5517 5514 5512 5510 5509 5508 5506 5504 5501 5498 5496 5493 5491 5489 5488 5486 5485 5484 5483 5483 5482 5482 5482 5482 5481 5481 5480 5480 5480 5479 5479
5482 5491 5504 5530 5529 5521 5516 5516 5513 5517 5520 5518 5517 5515 5513 5510 5509 5508 5507 5505 5503 5501 5498 5495 5492 5490 5487 5485 5483 5482 5481 5480 5478 5478 5477 5476 5475 5475 5474 5473 5472 5471 5471 5470
5477 5480 5500 5525 5526 5518 5514 5519 5521 5517 5519 5517 5513 5510 5512 5513 5510 5508 5506 5504 5502 5499 5497 5493 5490 5487 5484 5482 5480 5478 5477 5476 5474 5473 5471 5470 5469 5468 5467 5466 5465 5464 5463 5462
5472 5479 5497 5530 5526 5519 5518 5520 5526 5518 5515 5511 5508 5506 5513 5514 5509 5506 5504 5501 5499 5497 5494 5491 5488 5485 5481 5479 5477 5476 5474 5472 5470 5468 5466 5464 5463 5462 5461 5459 5458 5456 5455 5453
5468 5471 5495 5518 5516 5515 5514 5526 5526 5516 5513 5508 5503 5508 5511 5509 5505 5503 5501 5498 5496 5493 5490 5489 5486 5482 5478 5476 5474 5473 5471 5468 5465 5463 5461 5459 5457 5455 5453 5452 5450 5448 5446 5444
5466 5467 5495 5515 5507 5509 5518 5519 5518 5513 5509 5505 5503 5504 5503 5502 5500 5498 5496 5494 5492 5489 5487 5484 5481 5478 5475 5473 5472 5469 5466 5463 5460 5458 5456 5454 5450 5448 5446 5444 5441 5439 5438 5436
5482 5502 5512 5507 5509 5511 5508 5508 5509 5507 5505 5502 5499 5499 5498 5497 5496 5494 5491 5489 5487 5484 5482 5479 5476 5473 5471 5470 5467 5463 5460 5457 5454 5452 5449 5446 5443 5441 5438 5435 5433 5430 5429 5427
5476 5496 5502 5503 5502 5504 5503 5502 5503 5501 5499 5496 5494 5494 5493 5492 5490 5489 5487 5484 5482 5479 5476 5474 5471 5468 5467 5464 5461 5457 5454 5451 5448 5445 5442 5439 5436 5433 5430 5427 5424 5423 5421 5419
5474 5492 5496 5503 5502 5503 5502 5499 5496 5495 5494 5492 5490 5489 5489 5488 5486 5485 5483 5480 5476 5473 5471 5470 5466 5463 5461 5457 5454 5450 5447 5444 5441 5438 5434 5431 5428 5425 5422 5420 5417 5415 5413 5410
5494 5501 5495 5504 5505 5500 5497 5496 5494 5492 5492 5490 5486 5486 5485 5483 5481 5479 5477 5474 5470 5468 5466 5464 5460 5457 5454 5451 5447 5443 5440 5436 5433 5430 5426 5423 5420 5417 5416 5413 5411 5409 5406 5402
5498 5499 5495 5498 5498 5496 5493 5493 5491 5489 5488 5486 5484 5481 5479 5477 5475 5473 5470 5467 5465 5463 5460 5457 5454 5451 5448 5444 5440 5435 5432 5429 5425 5421 5417 5414 5411 5408 5407 5405 5403 5400 5397 5394
5487 5485 5486 5490 5490 5490 5488 5487 5485 5483 5481 5480 5478 5476 5473 5471 5469 5466 5464 5462 5460 5456 5453 5450 5447 5444 5441 5437 5432 5428 5424 5421 5417 5413 5409 5405 5401 5399 5396 5394 5392 5389 5387 5384
5479 5478 5481 5483 5482 5481 5479 5477 5476 5475 5474 5473 5471 5469 5467 5464 5463 5461 5459 5455 5452 5448 5445 5442 5439 5437 5434 5429 5425 5421 5416 5412 5408 5404 5399 5395 5392 5388 5385 5383 5381 5379 5376 5374
5473 5471 5470 5470 5472 5472 5471 5469 5468 5469 5467 5467 5465 5463 5461 5459 5457 5454 5451 5447 5443 5441 5439 5435 5433 5430 5426 5421 5417 5412 5408 5405 5400 5394 5390 5386 5382 5378 5375 5372 5370 5367 5365 5363
5461 5463 5464 5464 5465 5465 5464 5463 5462 5462 5460 5459 5459 5457 5454 5451 5448 5445 5443 5440 5437 5434 5431 5428 5426 5423 5418 5413 5408 5404 5399 5394 5391 5385 5380 5377 5373 5369 5365 5362 5360 5357 5355 5353
5459 5461 5461 5460 5459 5458 5457 5456 5455 5454 5453 5453 5451 5448 5445 5443 5441 5440 5436 5432 5427 5424 5423 5421 5418 5414 5409 5404 5399 5394 5389 5385 5381 5376 5372 5368 5364 5360 5355 5352 5350 5347 5345 5343
5450 5451 5451 5451 5450 5449 5448 5448 5447 5446 5445 5443 5441 5439 5438 5436 5434 5431 5427 5422 5418 5416 5416 5413 5410 5405 5400 5395 5391 5385 5380 5376 5372 5367 5363 5360 5355 5350 5346 5342 5339 5337 5334 5332
5442 5442 5442 5442 5441 5440 5440 5440 5439 5437 5436 5434 5432 5431 5429 5428 5425 5422 5418 5414 5413 5411 5409 5405 5401 5396 5392 5386 5382 5376 5371 5367 5363 5358 5354 5349 5345 5341 5337 5333 5329 5326 5324 5322
5433 5434 5434 5433 5433 5433 5432 5431 5429 5428 5427 5425 5423 5423 5421 5419 5416 5413 5409 5408 5408 5404 5400 5397 5392 5388 5383 5378 5374 5368 5363 5358 5354 5349 5345 5340 5336 5332 5327 5323 5319 5316 5314 5312
5424 5424 5424 5424 5424 5424 5423 5421 5420 5419 5419 5417 5416 5413 5411 5409 5407 5404 5402 5401 5400 5397 5392 5388 5384 5380 5376 5371 5365 5359 5354 5350 5345 5340 5336 5331 5326 5323 5319 5315 5311 5308 5305 5303
5414 5415 5415 5415 5415 5415 5414 5413 5412 5411 5410 5409 5408 5406 5404 5402 5400 5396 5396 5395 5391 5388 5384 5380 5377 5373 5369 5363 5356 5351 5346 5341 5337 5332 5328 5323 5319 5315 5311 5307 5304 5300 5298 5296
5406 5407 5407 5406 5404 5403 5405 5406 5404 5403 5402 5401 5400 5399 5396 5394 5392 5390 5388 5387 5384 5381 5376 5373 5370 5366 5361 5354 5348 5343 5338 5334 5329 5324 5320 5316 5311 5307 5303 5299 5296 5293 5291 5289
5398 5398 5397 5395 5395 5397 5398 5397 5395 5394 5392 5392 5392 5391 5389 5387 5385 5384 5380 5378 5376 5372 5368 5364 5362 5358 5352 5346 5341 5336 5331 5326 5322 5317 5313 5308 5305 5301 5297 5293 5290 5288 5286 5284
5390 5390 5391 5391 5391 5391 5389 5388 5386 5386 5385 5384 5385 5384 5382 5380 5377 5375 5372 5369 5366 5364 5360 5356 5352 5349 5343 5339 5334 5329 5324 5320 5315 5310 5306 5302 5298 5295 5291 5288 5285 5283 5282 5280
5381 5381 5381 5382 5383 5382 5381 5380 5379 5379 5378 5377 5378 5377 5375 5372 5370 5367 5364 5361 5358 5354 5351 5348 5344 5340 5336 5331 5327 5322 5317 5313 5309 5304 5300 5296 5293 5289 5286 5284 5281 5279 5277 5276